Volver al catálogo

STARLINK-32642

ActivoComunicacionesVLEO
NORAD 62211·PAYLOAD·🇺🇸 United States

Lanzado Dec 4, 2024 desde Cape Canaveral Space Force Station

Loading…

Próximos Pases (próximas 24 horas)

TLE

ActualizadoSource: CelesTrak SupGP

Época: Sep 15, 2026, 02:05 UTC

1 62211C 24229V   26258.08729167  .00011780  00000+0  42664-3 0  2583
2 62211  43.0018 280.8720 0001264 262.7051 322.0379 15.27575752    16

Sigue STARLINK-32642 en tiempo real con AllMySat

Download on the App Store